Location: Melita
(38.4566°N, 122.6369°W)
Time: 19:56:17
(UTC+00:00)

Cosmos 1821 Rocket - Pass Details

Date: 24 January 2020
Orbit: 944 x 1005 km, 82.9° (Epoch: 16 February)

Event Time Altitude Azimuth Distance (km) Brightness Sun altitude
Rises 14:48:09 0° 351° (N) 3,655 6.7 -7.0°
Reaches altitude 10° 14:50:41 10° 351° (N) 2,697 6.1 -6.6°
Maximum altitude 14:56:50 81° 265° (W) 965 4.0 -5.4°
Drops below altitude 10° 15:02:54 10° 179° (S) 2,655 6.6 -4.3°
Sets 15:05:22 0° 178° (S) 3,595 7.3 -3.9°
